Content
SEND FEEDBACK

Daily
Averages
Monthly
Summary
Czech Republic

PRAGUE, CZECH REPUBLIC


Home > Europe > Czech Republic
Elevation: 1184 feet     Latitude: 50 06N     Longitude: 014 15E

WEATHER
 
SELECT A DAY
Number of Records: 321,146;   Date Range: 7/1/96 - 9/15/14
 
SHARE

PRINT THIS DATA

[ ← Previous Day ]
WEATHER ALMANAC - JULY 30, 2014
[ Next Day → ]
[ °C ]   °F
Weather ElementAverageHighLow
Temperature67.2 °F77 °F (3:30 pm)60 °F (4:00 am)
Dewpoint63.9 °F67 °F (9:00 am)59 °F (4:00 am)
Humidity89.2 %100 % (1:30 am)58 % (4:00 pm)
Barometer29.75 in29.83 in (9:30 pm)29.71 in (1:00 am)
Wind Speed4.4 mph11.5 mph (4:43 pm)
Weather ElementAverage
Visibility4.5 mi
Wind DirectionSSE (163.8 °)

Weather ElementTotal
Precipitation---
Cooling Degree Days3.5 (Base 65)
Growing Degree Days18.5 (Base 50)
Averaged from 95 records on July 30, 2014
WEATHER CONDITIONS BREAKOUT
WIND DIRECTION BREAKOUT
WEATHER BY HOUR - JULY 30, 2014
[ °C ]   °F
Local TimeTemperatureDewpointHumidityBarometerVisibilityWind DirectionWind SpeedGust SpeedPrecipitationEventsConditions
12:00 AM64.4 °F60.8 °F88 %29.74 inVariable1.2 mphClear
12:30 AM62.6 °F60.8 °F94 %29.74 inSSE (160°)2.3 mphClear
1:00 AM64.0 °F62.0 °F91 %29.71 in9.0 miSouth (180°)2.2 mphClear
1:00 AM64.4 °F62.6 °F94 %29.74 inSSW (210°)2.3 mphClear
1:30 AM62.6 °F62.6 °F100 %29.71 inSSW (210°)3.5 mphClear
2:00 AM62.6 °F62.6 °F100 %29.71 inVariable2.3 mphClear
2:00 AM63.0 °F61.0 °F92 %29.71 in6.0 miNNE (20°)2.2 mph
2:30 AM62.6 °F62.6 °F100 %29.71 in5.6 miVariable1.2 mphPartly Cloudy
3:00 AM61.0 °F60.0 °F95 %29.72 in5.0 miNorth2.2 mphFogPatches of Fog
3:00 AM60.8 °F60.8 °F100 %29.74 in5.0 miWNW (300°)2.3 mphFogFog
3:30 AM60.8 °F60.8 °F100 %29.74 in5.0 miCalmPartly Cloudy
4:00 AM60.8 °F59.0 °F94 %29.71 in4.3 miSW (220°)4.6 mphPartly Cloudy
4:00 AM60.0 °F59.0 °F97 %29.72 in4.0 miSW (220°)4.5 mphMist
4:30 AM60.8 °F59.0 °F94 %29.71 in4.3 miSW (230°)5.8 mph
5:00 AM61.0 °F60.0 °F97 %29.72 in4.0 miNNE (20°)2.2 mphMist
5:00 AM60.8 °F60.8 °F100 %29.74 in4.3 miNNE (20°)3.5 mph
5:30 AM62.6 °F62.6 °F100 %29.74 in3.1 miVariable1.2 mphMist
6:00 AM60.8 °F59.0 °F94 %29.74 in2.8 miVariable2.3 mphScattered Clouds
6:00 AM60.0 °F60.0 °F98 %29.73 in2.0 miWNW (290°)2.2 mphMist
6:05 AM60.8 °F60.8 °F100 %29.74 in1.9 miNorth (360°)2.3 mphScattered Clouds
6:08 AM60.8 °F60.8 °F100 %29.74 in1.6 miNorth (10°)2.3 mphScattered Clouds
6:10 AM60.8 °F60.8 °F100 %29.74 in1.2 miNorth (10°)2.3 mphScattered Clouds
6:12 AM60.8 °F60.8 °F100 %29.74 in1.2 miNorth (10°)2.3 mphMostly Cloudy
6:20 AM62.6 °F60.8 °F94 %29.74 in0.7 miNNE (20°)2.3 mphMostly Cloudy
6:25 AM60.8 °F60.8 °F100 %29.74 in0.6 miVariable2.3 mphMostly Cloudy
6:30 AM60.8 °F60.8 °F100 %29.74 in0.5 miVariable2.3 mphFogFog
6:44 AM62.6 °F62.6 °F100 %29.74 in0.2 miVariable2.3 mphFogFog
7:00 AM64.0 °F63.0 °F94 %29.72 in0.0 miWest (270°)2.2 mphFogHeavy Fog
7:00 AM62.6 °F62.6 °F100 %29.74 in0.2 miVariable1.2 mphFogFog
7:05 AM64.4 °F62.6 °F94 %29.74 in0.1 miVariable2.3 mphFogFog
7:30 AM64.4 °F62.6 °F94 %29.74 in0.1 miVariable2.3 mphFogFog
7:45 AM64.4 °F64.4 °F100 %29.74 in0.1 miCalm
7:48 AM64.4 °F64.4 °F100 %29.74 in0.4 miVariable1.2 mph
7:52 AM64.4 °F64.4 °F100 %29.74 in0.6 miVariable1.2 mphFogPatches of Fog
8:00 AM64.4 °F64.4 °F100 %29.74 in1.1 miSE (140°)3.5 mphFogPatches of Fog
8:00 AM65.0 °F64.0 °F95 %29.72 in0.0 miESE (120°)2.2 mphFogPartial Fog
8:03 AM66.2 °F64.4 °F94 %29.74 in1.6 miSSE (150°)4.6 mphFogPatches of Fog
8:06 AM66.2 °F64.4 °F94 %29.74 in1.9 miSSE (160°)3.5 mphFogMostly Cloudy
8:11 AM66.2 °F66.2 °F100 %29.74 in2.5 miVariable2.3 mphMostly Cloudy
8:30 AM66.2 °F66.2 °F100 %29.74 in3.7 miSSE (160°)3.5 mphMostly Cloudy
9:00 AM68.0 °F66.2 °F94 %29.74 in4.3 miSSE (160°)3.5 mphMostly Cloudy
9:00 AM68.0 °F67.0 °F94 %29.72 in4.0 miSouth (180°)2.2 mphFogLight Fog
9:30 AM68.0 °F66.2 °F94 %29.74 in5.0 miVariable2.3 mphMostly Cloudy
10:00 AM70.0 °F66.0 °F83 %29.72 in6.0 miSW (230°)4.5 mphMostly Cloudy
10:00 AM69.8 °F66.2 °F88 %29.74 in6.2 miVariable2.3 mphMostly Cloudy
10:30 AM71.6 °F66.2 °F83 %29.77 in6.2 miVariable2.3 mphMostly Cloudy
11:00 AM71.6 °F66.2 °F83 %29.77 in6.2 miNE (40°)5.8 mphMostly Cloudy
11:00 AM72.0 °F66.0 °F77 %29.72 in7.0 miENE (70°)4.5 mphPartly Cloudy
11:30 AM71.6 °F66.2 °F83 %29.77 in6.2 miNE (50°)6.9 mphScattered Clouds
11:58 AM71.6 °F66.2 °F83 %29.77 in6.2 miENE (70°)5.8 mphRainLight Rain Showers
12:00 PM71.0 °F66.0 °F80 %29.73 in7.0 miEast (80°)4.5 mphRainLight Rain Showers
12:00 PM71.6 °F66.2 °F83 %29.77 in6.2 miENE (70°)5.8 mphRainLight Rain Showers
12:30 PM71.6 °F66.2 °F83 %29.77 in6.2 miVariable2.3 mphMostly Cloudy
1:00 PM73.4 °F66.2 °F78 %29.77 in6.2 miNE (40°)4.6 mphRainLight Rain Showers
1:00 PM73.0 °F66.0 °F73 %29.72 in7.0 miENE (70°)4.5 mphRainLight Rain Showers
1:14 PM73.4 °F66.2 °F78 %29.77 in6.2 miENE (60°)5.8 mphScattered Clouds
1:30 PM73.4 °F64.4 °F73 %29.77 in6.2 miENE (70°)5.8 mphScattered Clouds
2:00 PM75.0 °F64.0 °F61 %29.71 in9.0 miNNE (30°)4.5 mphRainLight Rain Showers
2:00 PM75.2 °F64.4 °F69 %29.77 in6.2 miNE (40°)4.6 mphPartly Cloudy
2:30 PM75.2 °F64.4 °F69 %29.77 in6.2 miNNE (20°)4.6 mphPartly Cloudy
3:00 PM75.0 °F65.0 °F65 %29.71 in12.0 miNNW (340°)6.7 mphPartly Cloudy
3:00 PM75.2 °F66.2 °F73 %29.77 in6.2 miNNW (340°)6.9 mphPartly Cloudy
3:30 PM77.0 °F66.2 °F69 %29.74 in6.2 miNW (320°)4.6 mphPartly Cloudy
4:00 PM76.0 °F64.0 °F58 %29.71 in16.0 miNNW (330°)6.7 mphScattered Clouds
4:00 PM77.0 °F64.4 °F65 %29.77 in6.2 miNW (310°)6.9 mphPartly Cloudy
4:30 PM75.2 °F64.4 °F69 %29.77 in6.2 miNW (320°)10.4 mphPartly Cloudy
4:43 PM73.4 °F66.2 °F78 %29.77 in6.2 miNW (310°)11.5 mphThunderstormThunderstorm
5:00 PM72.0 °F65.0 °F74 %29.73 in12.0 miNW (310°)8.9 mphThunderstormThunderstorm
5:00 PM71.6 °F66.2 °F83 %29.77 in6.2 miWNW (300°)11.5 mphThunderstormThunderstorm
5:07 PM71.6 °F64.4 °F78 %29.77 in6.2 miWNW (300°)10.4 mphRain-ThunderstormLight Thunderstorms and Rain
5:30 PM69.8 °F66.2 °F88 %29.77 in6.2 miWNW (300°)6.9 mphRain-ThunderstormLight Thunderstorms and Rain
5:49 PM69.8 °F66.2 °F88 %29.77 in6.2 miWNW (290°)5.8 mphRain-ThunderstormLight Rain Showers
6:00 PM69.0 °F65.0 °F84 %29.75 in6.0 miNW (320°)6.7 mphRainLight Rain Showers
6:00 PM68.0 °F64.4 °F88 %29.77 in6.2 miWNW (300°)4.6 mphRainLight Rain Showers
6:13 PM68.0 °F64.4 °F88 %29.80 in6.2 miNNW (330°)5.8 mphRain-ThunderstormLight Thunderstorms and Rain
6:30 PM68.0 °F66.2 °F94 %29.80 in6.2 miNW (310°)3.5 mphRain-ThunderstormLight Thunderstorms and Rain
6:53 PM68.0 °F66.2 °F94 %29.80 in3.1 miWest (270°)5.8 mphRain-ThunderstormLight Thunderstorms and Rain
7:00 PM68.0 °F64.4 °F88 %29.80 in2.5 miWest (270°)5.8 mphRain-ThunderstormRain Showers
7:00 PM67.0 °F65.0 °F92 %29.76 in2.0 miWest (280°)4.5 mphRainHeavy Rain Showers
7:30 PM68.0 °F64.4 °F88 %29.77 in3.7 miWest (280°)4.6 mphRainRain Showers
7:34 PM68.0 °F64.4 °F88 %29.77 in2.8 miWest (280°)5.8 mphRainRain
7:45 PM68.0 °F64.4 °F88 %29.80 in3.7 miWNW (290°)5.8 mphRainLight Rain
8:00 PM68.0 °F64.4 °F88 %29.80 in3.7 miWNW (300°)5.8 mphRainLight Rain
8:00 PM67.0 °F65.0 °F92 %29.76 in4.0 miNW (320°)6.7 mphRainLight Rain
8:18 PM68.0 °F66.2 °F94 %29.80 in3.7 miWest (280°)4.6 mphPartly Cloudy
8:30 PM68.0 °F66.2 °F94 %29.80 in3.7 miWest (280°)5.8 mphPartly Cloudy
9:00 PM67.0 °F65.0 °F92 %29.78 in4.0 miNW (320°)4.5 mphRainLight Rain
9:00 PM66.2 °F64.4 °F94 %29.80 in3.7 miWNW (300°)4.6 mphPartly Cloudy
9:30 PM68.0 °F64.4 °F88 %29.83 in5.0 miNW (320°)5.8 mph
10:00 PM66.2 °F64.4 °F94 %29.83 in5.0 miNW (310°)5.8 mph
10:00 PM67.0 °F65.0 °F91 %29.80 in4.0 miNW (320°)6.7 mphMist
10:30 PM68.0 °F64.4 °F88 %29.83 in5.0 miNW (320°)6.9 mph
11:00 PM67.0 °F65.0 °F92 %29.80 in5.0 miNNW (340°)8.9 mphMist
11:00 PM66.2 °F64.4 °F94 %29.83 in5.0 miNNW (330°)8.1 mph
11:30 PM66.2 °F64.4 °F94 %29.83 in5.0 miNorth (350°)6.9 mph
Hourly data recorded from LKPR, located miles away from Prague, Czech Republic







STORIES FROM OUR PARTNERS